Location: Broadview
(41.2178°N, 81.6385°W)
Time: 13:31:48
(UTC+00:00)

Tiangong - Visible Passes

Search period start: 29 September 2022 00:00
Search period end: 09 October 2022 00:00
Orbit: 381 x 385 km, 41.5° (Epoch: 29 September)

Date Brightness Start Highest point End Pass type
(mag) Time Alt. Az. Time Alt. Az. Time Alt. Az.
29 Sep 0.2 09:25:11 17° SE 09:25:11 17° SE 09:26:10 10° SE visible
30 Sep 0.3 10:00:47 12° S 10:00:47 12° S 10:01:25 10° S visible
08 Oct -0.6 00:19:37 10° SSW 00:21:56 23° SSE 00:21:56 23° SSE visible
08 Oct 0.0 23:20:18 10° S 23:22:08 15° SSE 23:23:59 10° ESE visible
